Location: Albuquerque Trailhead
(34.7934°N, 106.3736°W)
Time: 09:06:26
(UTC+00:00)

XW-2C - Pass Details

Date: 09 April 2023
Orbit: 480 x 495 km, 97.5° (Epoch: 31 May)

Event Time Altitude Azimuth Distance (km) Brightness Sun altitude
Rises 12:13:26 0° 38° (NE) 2,574 ? -6.5°
Reaches altitude 10° 12:16:51 10° 73° (ENE) 1,692 ? -5.8°
Maximum altitude 12:18:06 11° 93° (E) 1,602 ? -5.6°
Drops below altitude 10° 12:19:21 10° 113° (ESE) 1,691 ? -5.3°
Sets 12:22:44 0° 148° (SSE) 2,573 ? -4.7°
